[Date Prev][Date Next][Thread Prev][Thread Next] - [Date Index][Thread Index][Author Index]
2 Line ISS Keps 12-18
- Subject: [sarex] 2 Line ISS Keps 12-18
- From: "Dave Larsen PhD" <doc@xxxxxxxxxxx>
- Date: Thu, 18 Dec 2003 12:28:52 -0800
ISS
1 25544U 98067A 03352.50573043 .00011527 00000-0 11172-3 0 9070
2 25544 51.6273 169.9330 0005908 261.1694 98.9161 15.65661179289828
----
Via the sarex mailing list at AMSAT.ORG courtesy of AMSAT-NA.
To unsubscribe, send "unsubscribe sarex" to Majordomo@amsat.org
AMSAT Home